Showing default

HULIANWANG DIGUI-146, 67522

Orbit data source: Space-Track

HULIANWANG DIGUI-146, 67522 is a payload satellite owned by Zhongguo Xingwang (CN) in LEO that was launched on Mon, 19 Jan 2026 UTC via a CHANG ZHENG 12 launch vehicle from the Wenchang Satellite Launch Center (WSC). Payload-class satellites include a variety of spacecraft equipped with specific instruments for various scientific and technological missions. These include communications satellites like Starlink; space stations such as the ISS; scientific satellites like the Hubble; Earth observation satellites from companies like Planet Labs, Umbra, and HawkEye 360; GPS; miniature CubeSats for education and research; and military/defense satellites.

Loading next visibility...
Identifier
67522, 2026-013A
Orbit
LEO
Country
Flag of CNCN / PRC
Related business
Manufacturer
YINNT
Mission
Operational Civil Communications
Bus & Motor
XINGWANG Y, Unknown motor
Mass
~800 kg wet, ~800 kg dry
Launch date (UTC)
2026-01-19 (5 months ago)
Launch vehicle
CHANG ZHENG 12
Launch site
Wenchang Satellite Launch Center (WSC)
Object type
Payload
Rocket body
Debris
Shape & HBR
Box + 2 Pan, 2.6 m
Radar Cross Section
5.935 m², Large (>1 m²)

Expand to show TLE details & history
Last TLE update: 5 hours ago

TLE from 5 hours ago
0 HULIANWANG DIGUI-146
1 67522U 26013A   26163.87374598 -.00000077  00000-0  10231-3 0  9998
2 67522  50.0093  11.3664 0001148  96.2462 263.8541 13.29330295 19472
Epoch: 2026-06-12T20:58Z
TLE epoch observation values (Epoch: 2026-06-12T20:58:11.652Z)
Latitude
-0.00003°
Longitude
155.62089°
Altitude
1,149.89 km
Speed
7.279 km/s
True Right ascension
00h 45m 27s
True Declination
0° 00' 00"
Sunlit
Object was in daylight at epoch
Visualization orbit readout
Latitude
Unknown
Longitude
Unknown
Altitude
Unknown
Speed
Unknown
Apparent Right ascension
Unknown
Apparent Declination
Unknown
Sunlit
N/A
Visualization observer readout
Local Sidereal Time
12:48:18
Azimuth
Unknown
Elevation
Unknown
Doppler factor
Unknown
Orbital elements
Apogee altitude
1,150.859 km
Perigee altitude
1,149.13 km
Semi-major axis
7,528.131 km
Eccentricity
0.00011
Inclination
50.0093°
RAAN
11.3664°
Arg. of periapsis
96.2462°
True anomaly
263.84102°
Mean anomaly
263.8541°
Eccentric anomaly
263.84756°
Mean motion
3.32286 °/min
Orbital period
108.34 mins
BSTAR
0.00010231
Loading maneuver chart data...
Computing Atmospheric mass density...
Loading historical data...
Loading historical data...
Loading historical data...
Loading historical data...
Loading historical data...
Loading historical data...
Loading historical data...

Documentation

Showing up to 5 results
|